NETSAT-1

Last updated on Sat Dec 13 2025 00:03:49 GMT+0000 (Coordinated Universal Time)

1 46506U 20068W 25346.20749274 .00019835 00000+0 70418-3 0 9990 2 46506 97.8673 330.2844 0004382 319.2746 40.8164 15.29080731286674
UTC large
Height (km)
Speed (km/s)
/
Latitude / Longitude
Inclination (degrees)
Orbital Period (minutes)
Azimuth
Elevation
Range (km)
Doppler Factor

Next 0 passes for location: London (51.5072 / 0.1276)

Sorry there are no passes over London.